Location: Bosmont
(49.7318°N, 3.8587°E)
Time: 18:04:57
(UTC+00:00)

BlueWalker 3 - Visible Passes

Search period start: 10 June 2023 00:00
Search period end: 20 June 2023 00:00
Orbit: 493 x 513 km, 53.2° (Epoch: 09 June)

Date Brightness Start Highest point End Pass type
(mag) Time Alt. Az. Time Alt. Az. Time Alt. Az.
10 Jun 2.2 20:39:16 10° WNW 20:43:07 69° NNE 20:46:59 10° ESE visible
10 Jun 2.7 22:17:56 10° WNW 22:21:29 35° SW 22:22:42 28° S visible
11 Jun 2.8 21:57:29 10° WNW 22:01:00 34° SW 22:02:39 24° S visible
12 Jun 2.9 21:37:00 10° WNW 21:40:31 34° SW 21:42:39 19° SSE visible
13 Jun 2.9 21:16:32 10° WNW 21:20:01 33° SW 21:22:42 15° SSE visible
14 Jun 3.0 20:56:02 10° WNW 20:59:30 32° SW 21:02:47 11° SSE visible
15 Jun 3.1 20:35:31 10° WNW 20:38:59 32° SW 20:42:25 10° SSE visible
